Location: Newark
(39.5667°N, 8.9833°E)
Time: 14:51:06
(UTC+00:00)

Transit 2A - Pass Details

Date: 30 October 2019
Orbit: 601 x 957 km, 66.7° (Epoch: 14 November)

Event Time Altitude Azimuth Distance (km) Brightness Sun altitude
Rises 14:38:13 0° 164° (SSE) 3,375 9.6 17.6°
Reaches altitude 10° 14:41:38 10° 144° (SE) 2,371 8.6 17.1°
Maximum altitude 14:44:53 16° 107° (ESE) 1,902 7.8 16.6°
Drops below altitude 10° 14:47:58 10° 70° (ENE) 2,234 7.9 16.1°
Sets 14:51:03 0° 49° (NE) 3,088 8.5 15.6°
